GSAT0206 (GALILEO 10) (40890 NORAD) Tracking and Keplerian Element Data

This shows tracking and keplerian element data for the satellite.

Feedback or suggestion? Click here.




ElementValue
Catalog40890
NameGSAT0206 (GALILEO 10)
Epoch Orbit3761
Epoch Day268.13571974
Epoch Year2021
RAAN269.2852
Inclination55.8059
Eccentricity0.0003237
Argument of Perigee313.0876
Mean Anonmoly46.8842
Mean Motion1.70475204
Decay Rate1.3E-07
L11 40890U 15045B 21268.13571974 .00000013 00000-0 00000-0 0 9996
L22 40890 55.8059 269.2852 0003237 313.0876 46.8842 1.70475204 37611

Live tracking and technical data element details for GSAT0206 (GALILEO 10) (NORAD 40890). GSAT0206 (GALILEO 10) can be tracked NOW for your location showing map with azimuth and elevation plus other details from your city location.

Track the satellite on the map from your city or location and see movement details for azimuth, elevation, latitude, longitude, range, height, and movement on the map or in text.







IsCatalogInMostPopularTable: catalog: 40890, numindb: 535
Update: records affected: 1



GetName: 40890 GSAT0206 (GALILEO 10)

Hit Count: updated at: Mon, 27 Sep 2021 00:55:00 GMT